Beaufort, NC

3:47 PM EDT on October 16, 2019 (GMT -0400)
Smith

Weather History for KMRH - May, 2019

Change the Weather History Date:

Saturday, May 11, 2019

  Actual Average Record
Temperature  
Mean Temperature 76 °F -  
Max Temperature 82 °F 75 °F 88 °F (1964)
Min Temperature 72 °F 54 °F 38 °F (1977)
Cooling Degree Days 11    
Growing Degree Days 26 (Base 50)    
Moisture  
Dew Point 67 °F    
Average Humidity 76    
Maximum Humidity 87    
Minimum Humidity 64    
Precipitation  
Precipitation 0.00 in - - ()
Sea Level Pressure  
Sea Level Pressure 30.00 in    
Wind  
Wind Speed 9 mph (SSW)    
Max Wind Speed 14 mph    
Max Gust Speed -    
Visibility 10 miles    
Events      
Averages and records for this station are not official NWS values.
T = Trace of Precipitation, MM = Missing Value Source: NWS Daily Summary

Daily Weather History Graph

Daily Weather History Graph

Search for Another Location

Airport or City:

Astronomy

May. 11, 2019 Rise Set
Actual Time 6:07 AM EDT 7:59 PM EDT
Civil Twilight 5:39 AM EDT 8:27 PM EDT
Nautical Twilight 5:05 AM EDT 9:00 PM EDT
Astronomical Twilight 4:30 AM EDT 9:36 PM EDT
Moon 12:13 PM EDT (5/11) 1:37 AM EDT (5/11)
Length of Visible Light 14h 47m
Length of Day
13h 52m
Waxing Crescent, 46% of the Moon is Illuminated
May 11
Waxing Crescent
May 11
First Quarter
May 18
Full
May 26
Last Quarter
Jun 3
New

Hourly Weather History & Observations

Time (EDT) Temp. Heat Index Dew Point Humidity Pressure Visibility Wind Dir Wind Speed Gust Speed Precip Events Conditions
12:58 AM 73.9 °F - 66.9 °F 79% 30.08 in 10.0 mi SSW 9.2 mph - N/A   Clear
1:58 AM 73.9 °F - 66.9 °F 79% 30.05 in 10.0 mi SSW 9.2 mph - N/A   Clear
2:58 AM 73.9 °F - 68.0 °F 82% 30.04 in 10.0 mi SSW 8.1 mph - N/A   Clear
3:58 AM 73.0 °F - 69.1 °F 87% 30.04 in 10.0 mi SW 6.9 mph - N/A   Clear
4:58 AM 72.0 °F - 68.0 °F 87% 30.04 in 10.0 mi SSW 4.6 mph - N/A   Clear
5:58 AM 73.0 °F - 68.0 °F 84% 30.04 in 10.0 mi SW 6.9 mph - N/A   Clear
6:58 AM 73.9 °F - 66.9 °F 79% 30.06 in 10.0 mi WSW 4.6 mph - N/A   Mostly Cloudy
7:58 AM 75.0 °F - 66.0 °F 73% 30.06 in 10.0 mi West 6.9 mph - N/A   Mostly Cloudy
8:58 AM 75.9 °F - 66.9 °F 74% 30.05 in 10.0 mi SW 6.9 mph - N/A   Overcast
9:58 AM 77.0 °F - 66.0 °F 69% 30.04 in 10.0 mi SW 8.1 mph - N/A   Mostly Cloudy
10:58 AM 79.0 °F - 66.0 °F 64% 30.04 in 10.0 mi SW 9.2 mph - N/A   Partly Cloudy
11:58 AM 80.1 °F 82.3 °F 66.9 °F 64% 30.03 in 10.0 mi SSW 10.4 mph - N/A   Clear
12:58 PM 79.0 °F - 68.0 °F 69% 30.03 in 10.0 mi SW 11.5 mph - N/A   Mostly Cloudy
1:58 PM 79.0 °F - 69.1 °F 72% 30.01 in 10.0 mi South 11.5 mph - N/A   Mostly Cloudy
2:58 PM 79.0 °F - 68.0 °F 69% 29.99 in 10.0 mi SSW 11.5 mph - N/A   Clear
3:58 PM 78.1 °F - 68.0 °F 71% 29.97 in 10.0 mi South 11.5 mph - N/A   Clear
4:58 PM 77.0 °F - 68.0 °F 74% 29.95 in 10.0 mi South 10.4 mph - N/A   Clear
5:58 PM 77.0 °F - 66.9 °F 71% 29.94 in 10.0 mi South 10.4 mph - N/A   Clear
6:58 PM 75.9 °F - 66.9 °F 74% 29.94 in 10.0 mi South 10.4 mph - N/A   Clear
7:58 PM 73.9 °F - 68.0 °F 82% 29.95 in 10.0 mi SSW 10.4 mph - N/A   Clear
8:58 PM 73.9 °F - 68.0 °F 82% 29.95 in 10.0 mi South 9.2 mph - N/A   Clear
9:58 PM 73.9 °F - 69.1 °F 85% 29.95 in 10.0 mi South 8.1 mph - N/A   Clear
10:58 PM 73.9 °F - 66.9 °F 79% 29.93 in 10.0 mi South 11.5 mph - N/A   Clear
11:58 PM 75.0 °F - 66.9 °F 76% 29.93 in 10.0 mi SSW 13.8 mph - N/A   Clear